Dewpoint
58 58 58 58 59 59 59 60 60 61 61 62 62 62 62 62 62 61 61 61 61 61 62 61 62 62 62 62 62 61 58 50 42 37 33 36 54 61 62 63 64 64 64 53 40 32 28 27 27 31 33 36 40 34 41 39 39 39 29 23 23 22 20 24 22 21 24 19 20 19 19 17 17 21 21 20 20 21 21 23 23 25 25 24 23 26 31 32
57 58 58 59 59 59 59 60 60 60 61 62 62 62 62 62 62 61 62 62 61 60 61 61 62 62 62 62 62 60 57 50 38 33 31 55 61 60 63 64 64 64 62 43 32 28 27 24 24 28 29 30 42 34 35 37 37 32 25 24 22 21 24 21 18 17 17 18 18 19 19 18 18 20 19 18 18 18 19 20 22 22 24 23 25 27 31 28
57 58 58 59 59 59 59 60 60 59 60 61 61 62 62 61 62 62 61 61 61 61 60 61 62 62 62 61 60 59 59 46 42 34 31 61 59 63 63 63 64 65 56 40 34 32 26 24 22 23 25 25 33 30 34 36 29 27 29 23 22 26 22 20 17 16 18 19 19 19 19 19 19 20 19 18 18 18 18 18 19 20 21 23 24 25 28 27
57 57 58 58 58 59 59 60 59 60 60 60 60 61 61 61 62 61 61 61 61 61 60 61 62 62 61 60 61 63 52 43 28 30 43 59 62 62 62 63 63 62 56 38 32 29 26 25 25 24 28 26 29 34 28 34 28 31 23 20 24 22 20 18 18 17 17 20 18 18 20 19 19 20 19 18 18 18 18 19 18 19 20 22 23 25 28 27
57 57 57 57 58 58 59 59 59 60 60 59 60 61 61 61 62 61 61 61 61 61 61 61 62 62 61 61 57 59 48 25 28 39 45 60 61 62 61 62 61 54 44 37 29 26 26 25 25 25 28 23 27 27 22 30 27 32 21 20 22 22 19 18 18 22 19 21 19 19 20 19 20 20 19 19 18 18 18 18 19 19 20 20 22 24 27 26
57 57 57 57 57 58 58 59 59 60 60 60 60 60 61 61 62 61 60 61 61 61 60 60 62 62 61 60 59 54 41 11 40 47 58 58 60 60 60 61 60 51 37 30 28 27 26 25 23 25 23 22 23 24 22 22 26 19 20 20 21 20 19 19 19 23 21 19 18 20 20 19 19 19 19 19 18 19 19 20 20 19 20 20 23 25 27 27
57 56 56 57 57 58 59 59 59 59 59 60 60 60 61 61 61 61 60 61 60 60 60 60 61 61 61 60 53 46 34 26 37 53 58 59 56 60 59 58 56 45 32 26 24 29 29 26 24 22 22 21 20 21 22 24 25 22 20 19 20 20 19 19 19 22 20 20 19 18 20 19 19 18 19 19 19 19 19 19 19 19 20 21 22 24 26 27
57 56 56 56 57 57 58 58 59 59 59 60 60 60 61 61 61 61 60 60 60 60 60 60 61 61 60 58 45 31 35 33 43 46 57 54 53 55 56 46 40 41 31 24 23 24 26 25 24 24 23 21 22 21 22 21 21 22 21 20 21 22 20 19 20 21 21 21 21 20 19 19 19 19 19 19 19 20 20 20 19 19 19 20 21 23 26 27
57 55 55 56 56 57 57 58 58 59 59 59 60 60 61 61 60 60 60 59 60 60 59 60 60 60 59 50 38 30 26 49 42 42 52 46 44 42 48 38 35 32 27 24 23 27 28 25 26 25 22 22 22 19 23 21 18 20 19 20 19 20 18 18 20 21 21 21 21 20 20 20 20 21 20 20 20 21 21 20 20 19 21 19 20 21 23 25
56 55 55 56 56 57 57 57 58 58 58 59 59 60 60 61 60 61 60 60 60 59 59 60 61 60 54 43 39 23 45 38 40 40 42 40 43 38 35 45 28 27 25 23 24 25 26 28 31 31 30 25 25 21 23 21 16 20 19 19 18 18 18 20 20 18 19 20 21 19 19 19 20 20 18 20 20 21 20 20 20 19 19 19 19 20 21 24
56 55 55 55 56 57 56 56 57 57 58 58 59 59 60 60 60 60 60 59 60 59 59 59 60 55 49 42 28 17 45 49 39 40 41 42 37 34 46 44 36 35 26 30 24 29 33 28 36 31 33 23 24 22 22 19 20 19 19 18 18 19 18 19 20 19 19 18 19 19 18 18 19 21 18 19 18 19 19 19 20 20 20 19 19 19 24 22
56 55 55 55 56 56 56 56 57 57 57 58 58 58 60 60 60 60 60 59 59 59 60 55 59 51 42 34 27 31 38 42 42 41 41 46 44 47 47 39 36 47 35 24 35 43 44 37 35 25 21 27 21 21 20 21 19 19 19 16 15 14 16 18 18 18 19 16 19 19 18 17 18 19 20 20 18 18 18 18 19 19 19 21 20 19 21 22
56 56 55 56 56 56 56 56 56 57 57 57 58 58 59 59 60 59 59 58 58 59 58 60 52 49 47 30 30 43 42 39 42 41 40 43 44 41 44 45 42 37 40 32 36 45 44 38 36 26 29 27 24 21 22 20 18 18 17 16 15 14 12 13 16 18 18 17 19 18 13 6 15 18 18 19 18 17 17 18 18 19 19 19 21 20 21 21
57 56 55 56 56 56 56 56 56 56 56 57 58 58 58 58 59 59 58 58 60 60 60 60 61 48 37 17 41 42 39 40 43 40 41 45 40 45 46 45 43 39 44 42 43 41 40 32 37 27 29 24 21 26 19 18 18 17 16 17 17 16 14 18 19 18 17 19 19 19 16 8 7 15 19 19 18 17 17 17 18 19 19 19 21 21 21 21
58 56 56 56 56 56 57 56 56 56 56 57 57 57 58 58 58 58 57 59 60 60 57 55 54 46 30 20 40 43 55 37 35 42 43 36 37 39 37 36 40 37 35 38 38 37 33 38 35 25 23 22 25 21 21 19 17 17 16 17 20 17 15 19 20 18 15 19 18 18 18 12 8 8 8 20 19 17 17 17 17 19 19 19 19 20 20 21
57 57 57 56 57 57 57 56 56 56 56 57 57 57 57 57 57 57 58 59 57 60 61 56 45 43 30 16 42 51 42 34 35 47 43 38 46 38 41 40 40 39 33 30 34 31 31 36 27 29 23 21 21 20 20 21 21 19 18 22 20 17 18 16 19 19 16 18 19 17 10 5 4 5 17 20 19 19 17 16 16 15 16 17 18 19 20 21
57 57 56 56 57 57 57 57 56 56 56 56 57 57 56 56 57 57 60 59 58 56 58 39 36 35 17 38 38 33 31 42 45 44 39 39 40 42 38 38 33 33 35 33 36 39 30 29 30 33 27 21 20 23 21 22 21 21 22 19 22 16 12 10 18 19 23 18 16 18 15 12 9 8 9 18 18 17 15 14 14 14 15 15 17 18 19 20
58 58 57 57 57 57 57 57 56 57 57 56 57 56 56 57 56 57 56 56 55 53 47 39 39 31 22 33 23 24 40 35 48 43 43 37 43 36 36 28 34 32 33 28 34 31 30 25 26 21 22 23 20 20 24 16 18 15 12 20 18 15 12 12 12 14 19 18 15 15 16 14 13 12 12 12 13 16 15 14 14 13 14 15 16 16 18 20
58 58 57 57 57 57 57 57 57 57 56 57 57 58 57 55 54 51 41 40 40 34 25 30 30 19 12 28 28 35 42 44 42 43 34 39 41 36 32 31 36 26 27 22 23 24 29 29 33 27 23 22 21 18 19 21 16 13 15 18 16 17 13 11 10 16 15 15 15 14 11 10 12 12 13 14 13 13 11 12 13 15 14 14 15 17 19 22
58 58 58 57 56 56 57 57 57 57 57 53 51 51 52 45 44 31 29 33 20 16 19 21 23 22 25 26 28 40 46 45 35 41 42 40 36 32 29 25 37 33 23 27 30 25 33 25 24 24 22 20 22 20 18 17 15 16 23 23 17 16 17 16 15 14 13 12 12 12 12 12 12 12 12 12 12 12 11 12 13 14 16 19 19 20 20 23
58 58 57 56 56 56 57 57 57 57 56 52 51 42 8 14 18 11 22 20 22 23 18 14 16 18 17 39 43 35 30 32 36 39 39 42 40 27 24 26 28 24 24 24 27 27 27 23 23 22 19 17 17 19 20 19 18 18 19 21 18 23 18 17 17 13 13 13 13 13 13 14 12 12 12 12 12 12 12 13 14 13 14 17 20 22 24 22
58 58 57 57 56 57 57 57 57 56 55 51 51 32 22 39 47 45 31 8 23 30 38 31 30 22 21 24 39 42 32 19 34 39 43 37 31 22 22 21 20 20 24 28 29 27 27 23 20 19 19 22 21 21 20 19 20 22 20 20 21 19 23 20 19 13 12 15 13 13 13 14 14 15 15 14 14 15 15 16 15 15 19 21 22 23 24 27
58 58 57 57 57 57 57 57 56 55 51 45 44 31 44 46 48 49 45 35 30 36 31 32 24 23 20 30 29 31 20 18 12 38 37 39 30 25 22 20 18 16 31 24 24 26 24 24 20 18 22 21 19 19 19 20 23 21 22 22 19 22 23 17 17 18 15 14 15 16 15 16 16 16 15 16 15 16 20 19 21 24 22 23 21 23 26 27
58 57 57 56 57 57 58 57 56 54 49 49 45 45 49 48 48 48 44 27 20 31 34 31 26 21 20 21 32 26 17 15 16 24 37 35 26 29 30 21 15 17 22 22 20 21 19 17 22 21 26 21 21 20 21 19 18 26 27 24 21 23 21 22 17 19 18 16 19 17 19 18 18 17 17 17 17 18 18 18 21 25 31 30 35 35 32 26
58 57 57 56 57 58 56 56 50 46 50 49 45 47 48 47 48 49 36 22 26 29 40 37 39 37 32 39 36 24 21 22 25 37 38 35 24 25 22 21 17 13 16 18 18 21 18 17 29 20 27 22 26 21 24 27 20 19 28 26 23 22 19 21 25 22 19 18 21 24 14 13 14 11 15 17 18 18 18 20 19 20 21 25 27 30 32 34
58 57 57 57 57 58 57 51 47 47 46 46 44 47 45 47 48 48 34 22 21 29 29 22 36 23 37 31 37 32 25 20 32 36 38 39 37 27 21 19 17 15 12 19 14 20 18 25 29 27 30 30 27 24 25 27 20 21 19 29 26 23 24 26 26 24 20 15 21 21 16 15 13 11 10 10 14 13 18 23 19 18 21 24 30 32 31 29
58 58 57 57 57 57 48 45 50 45 46 48 49 48 44 46 48 44 20 16 13 30 21 37 29 28 42 34 30 27 14 19 34 36 34 37 29 36 18 15 20 21 23 22 24 20 25 22 26 31 28 29 28 21 26 24 23 18 29 33 26 26 26 26 25 24 19 23 24 23 20 16 17 17 17 15 10 11 15 18 20 19 18 15 16 31 31 28
58 58 57 58 57 55 48 48 48 43 43 47 49 46 47 47 48 45 17 13 14 33 29 26 33 38 39 32 39 21 21 25 24 28 29 35 31 28 20 14 18 19 21 23 17 34 24 31 29 28 28 25 24 24 34 29 24 24 27 29 26 24 25 26 24 20 21 19 19 20 25 16 17 19 17 15 12 9 8 6 7 9 14 16 20 27 32 28
57 57 57 57 55 54 53 49 48 45 48 50 48 48 47 48 43 28 14 13 31 21 35 25 37 34 33 32 27 27 24 27 20 26 34 30 32 27 22 20 17 19 21 22 16 31 26 32 30 29 28 24 31 22 27 29 23 30 28 28 27 27 26 23 20 19 20 17 20 19 23 15 15 18 16 15 12 9 7 7 8 12 15 21 25 29 30 28
57 57 57 55 53 53 51 51 49 51 50 50 49 47 49 43 30 15 13 14 26 16 23 31 25 25 29 26 26 27 23 24 23 26 28 26 30 33 24 28 23 22 27 22 27 29 25 25 32 30 29 28 22 23 29 27 29 28 29 26 25 25 24 21 21 18 20 18 22 22 23 18 13 17 17 19 19 13 11 11 10 13 19 17 27 32 33 28
57 57 57 55 51 52 49 46 50 51 50 49 49 49 44 32 17 12 15 21 20 28 26 27 23 30 25 25 22 27 27 24 23 23 23 24 24 24 22 23 27 27 26 27 27 31 26 26 27 27 30 26 25 28 27 28 29 30 22 21 23 23 19 19 20 21 18 16 19 21 23 22 15 13 18 10 12 12 7 6 7 9 11 16 33 31 29 28
57 57 57 55 53 53 46 45 50 52 50 49 49 44 34 15 18 10 13 14 18 25 21 25 29 28 25 28 32 28 26 26 24 21 21 22 25 22 22 21 26 21 21 22 22 32 29 30 27 33 31 25 29 24 23 27 26 27 20 20 18 16 17 15 18 16 16 14 19 17 24 22 14 7 5 5 8 8 7 6 6 7 7 15 30 35 32 32
57 56 56 55 54 51 50 52 51 51 50 48 44 37 23 16 15 17 14 19 15 27 20 35 30 27 30 30 29 31 34 26 25 21 25 28 25 27 27 24 28 25 19 27 24 24 25 35 30 32 29 29 28 20 21 19 19 21 18 18 18 15 17 17 16 18 16 21 17 12 24 16 14 10 11 10 8 9 9 10 16 14 11 15 26 40 34 35
57 56 56 55 55 53 53 53 52 51 47 46 38 31 25 13 15 33 22 15 25 22 28 29 30 28 31 25 28 33 28 29 26 23 25 26 25 25 25 27 26 31 29 19 16 19 19 19 27 30 24 30 27 23 23 24 19 18 24 20 19 18 16 12 11 12 15 13 13 22 15 16 14 5 12 8 8 10 11 12 19 21 21 27 32 36 35 33
57 57 57 57 56 54 53 52 51 50 50 46 40 29 19 19 17 15 18 19 24 19 24 30 30 31 29 29 33 32 25 27 29 27 26 26 23 23 24 24 28 28 32 21 25 23 21 19 30 33 35 29 29 29 33 28 24 22 24 25 20 20 18 14 13 15 17 14 15 21 12 14 7 10 16 14 9 9 13 14 18 19 22 31 30 32 32 29
56 56 57 54 54 54 52 52 51 51 49 41 33 26 19 21 17 20 18 16 18 25 27 28 34 28 22 26 31 30 38 29 30 28 27 27 26 24 27 27 27 26 25 20 25 18 21 15 35 30 31 27 27 32 29 30 21 20 23 21 21 29 23 21 23 24 21 15 13 18 12 16 12 11 11 13 12 8 11 12 13 16 19 24 29 31 31 29
54 56 52 54 54 55 52 51 51 51 49 41 34 26 28 27 23 24 22 13 14 21 24 12 20 16 21 18 26 29 32 29 30 28 22 29 25 27 27 28 30 27 24 23 23 26 22 19 30 29 24 27 23 27 29 29 30 22 18 20 29 29 27 20 15 16 14 12 15 16 18 9 10 12 15 11 10 8 10 9 9 14 20 21 27 30 31 31
54 53 53 53 55 54 52 51 51 50 46 39 31 33 32 28 24 19 23 24 21 24 19 14 14 24 18 15 19 24 31 23 24 26 21 26 18 31 29 28 27 28 25 25 21 30 31 20 29 30 29 27 26 27 25 27 29 23 21 31 19 16 16 15 17 14 12 12 11 10 7 11 13 12 13 11 11 9 8 12 13 14 21 23 29 28 30 32
55 52 48 52 56 54 52 52 51 46 41 35 32 33 35 31 26 23 19 13 20 18 11 16 14 25 18 14 15 23 27 19 28 24 18 22 19 30 28 28 30 27 25 24 22 25 31 19 21 26 26 26 24 25 20 20 27 25 26 21 26 15 19 16 16 16 11 10 11 14 15 11 18 9 9 13 12 13 9 11 12 13 15 20 29 27 27 30
52 47 46 54 54 53 52 51 47 44 38 32 34 36 35 34 30 28 21 17 22 14 16 16 16 12 18 19 18 20 29 22 24 24 20 25 17 25 21 28 28 31 24 24 25 26 22 22 16 21 26 24 17 20 19 21 22 19 18 16 19 23 21 16 18 17 12 12 9 9 10 12 16 4 3 7 13 12 11 13 19 19 18 20 26 26 28 30
53 48 46 53 53 53 52 48 42 37 35 37 38 37 36 35 31 28 26 22 28 22 17 20 13 10 16 12 15 18 20 25 25 21 23 20 14 15 25 26 27 30 27 27 28 27 25 18 19 17 17 18 19 24 24 24 23 21 19 18 17 18 16 15 15 21 20 14 13 9 11 13 14 10 7 3 8 13 15 16 22 25 23 27 29 28 28 30
49 42 46 52 53 52 48 39 39 40 36 35 35 39 36 37 34 34 32 29 29 21 15 15 16 19 18 15 16 19 17 25 26 25 25 20 20 14 24 24 22 31 26 25 24 28 25 24 21 19 20 21 22 25 30 31 31 27 19 20 22 18 16 17 13 17 20 16 17 17 12 12 9 8 10 10 11 9 14 21 16 26 29 29 28 28 29 29
47 45 50 52 53 50 45 38 38 36 34 38 41 39 40 39 37 38 33 31 30 23 23 24 15 16 20 13 18 18 19 21 24 24 26 27 23 18 35 22 26 32 25 24 31 31 30 28 22 19 22 24 24 23 27 25 27 25 25 25 22 17 18 15 16 9 14 17 14 14 14 14 16 15 14 14 16 17 14 16 18 19 26 27 27 31 30 30
49 46 45 51 52 50 43 33 32 33 35 39 39 38 40 39 39 37 37 34 32 30 24 23 23 15 16 27 23 21 22 16 23 20 21 31 23 20 23 20 22 28 25 26 18 30 23 23 19 19 19 18 17 18 19 21 25 18 17 22 25 24 24 23 26 18 16 18 15 12 12 13 17 20 18 16 13 15 17 16 19 21 27 30 27 29 30 28
48 47 46 47 50 49 41 41 38 36 35 35 37 36 38 39 40 39 37 36 36 33 30 28 23 26 23 31 24 24 24 19 17 24 22 29 21 39 35 22 22 25 24 36 33 31 22 25 20 16 14 14 15 12 13 17 17 18 21 22 25 25 24 19 18 18 15 17 15 13 10 8 8 9 7 8 8 16 17 17 18 27 29 28 30 31 28 26
45 39 43 44 47 45 44 46 44 41 37 35 36 36 37 36 38 39 40 38 36 34 31 30 31 21 24 24 21 21 21 23 22 21 22 24 25 32 36 32 30 28 31 34 34 27 25 28 18 15 17 17 18 19 22 24 18 19 21 21 23 26 25 24 21 18 15 17 16 17 15 14 13 12 12 10 10 11 5 10 21 24 24 29 31 31 30 27
46 43 39 34 43 42 40 43 41 42 38 39 33 36 35 36 37 38 40 36 37 36 35 32 30 26 27 26 23 23 26 26 27 26 24 23 23 25 30 34 30 29 33 30 33 26 26 17 21 20 18 17 17 18 18 19 19 20 20 21 23 25 26 25 22 18 18 20 14 18 19 22 19 16 14 13 13 12 13 13 14 15 25 26 26 26 28 23
39 43 45 41 37 33 36 35 40 40 41 41 37 38 36 36 37 36 39 38 38 38 35 38 35 32 30 30 30 28 28 27 28 26 27 29 28 27 24 31 27 33 29 28 33 28 24 21 23 21 20 20 19 17 16 17 16 17 22 21 22 24 25 25 24 23 24 20 17 18 21 22 19 17 17 16 15 15 14 13 15 14 14 16 26 22 23 23
45 45 46 47 40 41 37 37 38 39 38 40 38 38 36 36 36 37 38 38 39 37 36 33 34 34 33 32 32 31 32 29 30 32 31 31 31 29 27 27 28 32 30 27 28 30 26 23 25 25 24 25 24 23 22 20 20 20 20 20 21 23 22 22 22 25 24 21 20 20 22 22 19 18 15 14 16 16 15 16 14 14 16 20 24 22 19 19
40 42 40 46 43 42 42 40 38 37 36 38 36 36 37 37 36 37 39 38 36 37 38 35 35 36 36 34 33 32 33 34 33 33 33 32 31 31 29 29 30 32 31 27 31 34 23 20 25 25 24 25 26 26 26 26 25 24 23 24 24 24 24 25 24 25 25 25 25 23 23 22 22 20 20 16 17 17 18 17 17 18 20 19 19 19 19 18
44 44 44 39 35 38 40 40 39 38 36 37 36 36 38 37 37 37 37 39 37 36 37 36 36 36 37 36 35 34 35 35 35 35 36 35 31 32 30 30 31 29 33 32 32 31 29 25 27 24 24 24 26 26 26 28 26 24 23 23 23 22 22 22 22 22 23 23 23 24 24 22 21 22 21 20 20 20 19 19 18 19 18 18 19 19 19 19
39 42 43 41 34 37 37 39 39 38 33 37 37 37 37 37 38 38 36 39 39 39 38 38 38 36 36 36 35 35 36 36 35 36 35 35 36 35 33 36 35 33 31 31 35 30 31 27 26 26 24 24 26 26 27 27 26 24 24 24 25 24 24 24 24 24 23 23 22 21 22 22 22 22 21 21 20 20 20 19 20 19 18 18 19 19 19 20